ONEWEB-0637, 56078

Orbit data source: Space-Track

ONEWEB-0637, 56078 is a payload satellite owned by One Web (NAA) (UK) in LEO that was launched on Sun, 26 Mar 2023 UTC via a LVM3 launch vehicle from the Sirharikota (SRI). Payload-class satellites include a variety of spacecraft equipped with specific instruments for various scientific and technological missions. These include communications satellites like Starlink; space stations such as the ISS; scientific satellites like the Hubble; Earth observation satellites from companies like Planet Labs, Umbra, and HawkEye 360; GPS; miniature CubeSats for education and research; and military/defense satellites.

Loading next visibility...
Identifier
56078, 2023-043AJ
Orbit
LEO
Country
Flag of UKUK
Related business
Manufacturer
One Web
Mission
Operational Commercial Communications
Bus & Motor
ARROW, Unknown motor
Mass
148 kg wet, ~140 kg dry
Launch date (UTC)
2023-03-26 (2 years ago)
Launch vehicle
LVM3
Launch site
Sirharikota (SRI)
Object type
Payload
Rocket body
Debris
Shape & HBR
Trap Box + 2 Pan, 2.5 m
Radar Cross Section
2.032 m², Medium (>0.1 m² and < 1m²)

Expand to show TLE details & history
Last TLE update: 15 hours ago

TLE from 15 hours ago
0 ONEWEB-0637
1 56078U 23043AJ  25250.19663687 -.00000013  00000-0 -68123-4 0  9998
2 56078  87.9043 315.6884 0002257  98.7842 261.3544 13.15548433119225
Epoch: 2025-09-07T04:43Z
TLE epoch observation values (Epoch: 2025-09-07T04:43:09.425Z)
Latitude
-0.00002°
Longitude
-101.62045°
Altitude
1,204.924 km
Speed
7.251 km/s
True Right ascension
21h 02m 45s
True Declination
0° 00' 00"
Sunlit
Object was in full shadow at epoch
Visualization orbit readout
Latitude
Unknown
Longitude
Unknown
Altitude
Unknown
Speed
Unknown
Apparent Right ascension
Unknown
Apparent Declination
Unknown
Sunlit
N/A
Visualization observer readout
Local Sidereal Time
11:47:45
Azimuth
Unknown
Elevation
Unknown
Doppler factor
Unknown
Orbital elements
Apogee altitude
1,200.593 km
Perigee altitude
1,197.173 km
Semi-major axis
7,577.02 km
Eccentricity
0.00023
Inclination
87.9043°
RAAN
315.6884°
Arg. of periapsis
98.7842°
True anomaly
261.32883°
Mean anomaly
261.3544°
Eccentric anomaly
261.34162°
Mean motion
3.29075 °/min
Orbital period
109.4 mins
BSTAR
-0.000068123
Loading maneuver chart data...
Computing Atmospheric mass density...
Loading historical data...
Loading historical data...
Loading historical data...
Loading historical data...
Loading historical data...
Loading historical data...
Loading historical data...

Documentation

Showing up to 5 results
|